Location: Sungai Bunut
(2.6333°N, 113.7333°E)
Time: 17:54:58
(UTC+00:00)

Transit 4A - Pass Details

Date: 08 December 2023
Orbit: 869 x 974 km, 66.8° (Epoch: 20 February)

Event Time Altitude Azimuth Distance (km) Brightness Sun altitude
Rises 20:47:38 0° 13° (NNE) 3,488 10.8 -21.6°
Reaches altitude 10° 20:51:22 10° 36° (NE) 2,533 10.3 -20.7°
Maximum altitude 20:54:28 15° 68° (ENE) 2,208 10.4 -20.0°
Drops below altitude 10° 20:57:32 10° 101° (E) 2,516 11.3 -19.3°
Sets 21:01:12 0° 124° (SE) 3,449 12.4 -18.5°
